Time,TemperatureF,DewpointF,PressureIn,WindDirection,WindDirectionDegrees,WindSpeedMPH,WindSpeedGustMPH,Humidity,HourlyPrecipIn,Conditions,Clouds,dailyrainin,SoftwareType,DateUTC
2013-01-12 00:03:00,14.6,12.2,30.32,South,172,3.0,6.0,90,0.00,,---,0.00,VWS V13.00,2013-01-12 08:03:00,
2013-01-12 00:08:00,14.8,12.4,30.32,SSE,159,2.0,6.0,90,0.00,,---,0.00,VWS V13.00,2013-01-12 08:08:00,
2013-01-12 00:13:00,15.0,12.6,30.32,SSE,161,2.0,6.0,90,0.00,,---,0.00,VWS V13.00,2013-01-12 08:13:00,
2013-01-12 00:18:00,15.2,13.1,30.32,SSE,161,0.0,6.0,91,0.00,,---,0.00,VWS V13.00,2013-01-12 08:18:00,
2013-01-12 00:23:00,15.4,13.0,30.32,SSE,161,0.0,6.0,90,0.00,,---,0.00,VWS V13.00,2013-01-12 08:23:00,
2013-01-12 00:28:00,15.5,13.4,30.32,SSE,162,2.0,6.0,91,0.00,,---,0.00,VWS V13.00,2013-01-12 08:28:00,
2013-01-12 00:33:00,15.7,13.5,30.32,SSE,162,3.0,4.0,91,0.00,,---,0.00,VWS V13.00,2013-01-12 08:33:00,
2013-01-12 00:38:00,15.9,13.7,30.32,SSE,161,2.0,4.0,91,0.00,,---,0.00,VWS V13.00,2013-01-12 08:38:00,
2013-01-12 00:43:00,16.1,13.9,30.32,SSE,153,1.0,5.0,91,0.00,,---,0.00,VWS V13.00,2013-01-12 08:43:00,
2013-01-12 00:48:00,16.3,14.1,30.32,SSE,153,1.0,5.0,91,0.00,,---,0.00,VWS V13.00,2013-01-12 08:48:00,
2013-01-12 00:53:00,16.4,14.2,30.32,SSE,153,0.0,5.0,91,0.00,,---,0.00,VWS V13.00,2013-01-12 08:53:00,
2013-01-12 00:58:00,16.5,14.3,30.32,SSE,153,0.0,5.0,91,0.00,,---,0.00,VWS V13.00,2013-01-12 08:58:00,
2013-01-12 01:03:00,16.6,14.4,30.32,SSE,153,0.0,0.0,91,0.00,,---,0.00,VWS V13.00,2013-01-12 09:03:00,
2013-01-12 01:08:00,16.7,14.5,30.32,SSE,153,0.0,1.0,91,0.00,,---,0.00,VWS V13.00,2013-01-12 09:08:00,
2013-01-12 01:13:00,16.8,14.6,30.32,SSE,153,1.0,1.0,91,0.00,,---,0.00,VWS V13.00,2013-01-12 09:13:00,
2013-01-12 01:18:00,16.9,14.7,30.32,SSE,153,0.0,1.0,91,0.00,,---,0.00,VWS V13.00,2013-01-12 09:18:00,
2013-01-12 01:23:00,17.1,14.9,30.32,SSE,153,1.0,2.0,91,0.00,,---,0.00,VWS V13.00,2013-01-12 09:23:00,
2013-01-12 01:28:00,17.1,14.9,30.32,SSE,153,1.0,2.0,91,0.00,,---,0.00,VWS V13.00,2013-01-12 09:28:00,
2013-01-12 01:33:00,17.2,15.0,30.32,SSE,153,0.0,1.0,91,0.00,,---,0.00,VWS V13.00,2013-01-12 09:33:00,
2013-01-12 01:38:00,17.2,15.0,30.32,SSE,153,0.0,1.0,91,0.00,,---,0.00,VWS V13.00,2013-01-12 09:38:00,
2013-01-12 01:43:00,17.1,14.9,30.32,SSE,153,0.0,1.0,91,0.00,,---,0.00,VWS V13.00,2013-01-12 09:43:00,
2013-01-12 01:48:00,17.1,14.9,30.32,SSE,153,0.0,2.0,91,0.00,,---,0.00,VWS V13.00,2013-01-12 09:48:00,
2013-01-12 01:53:00,17.0,14.8,30.32,SSE,153,1.0,2.0,91,0.00,,---,0.00,VWS V13.00,2013-01-12 09:53:00,
2013-01-12 01:58:00,17.0,14.8,30.32,SSE,153,0.0,2.0,91,0.00,,---,0.00,VWS V13.00,2013-01-12 09:58:00,
2013-01-12 02:03:00,17.0,14.8,30.32,SSE,153,0.0,0.0,91,0.00,,---,0.00,VWS V13.00,2013-01-12 10:03:00,
2013-01-12 02:08:00,17.0,14.8,30.32,SSE,153,0.0,0.0,91,0.00,,---,0.00,VWS V13.00,2013-01-12 10:08:00,
2013-01-12 02:13:00,17.1,14.9,30.32,SSE,153,0.0,0.0,91,0.00,,---,0.00,VWS V13.00,2013-01-12 10:13:00,
2013-01-12 02:18:00,17.1,14.9,30.32,SSE,153,0.0,0.0,91,0.00,,---,0.00,VWS V13.00,2013-01-12 10:18:00,
2013-01-12 02:23:00,17.2,15.0,30.32,SSE,153,0.0,0.0,91,0.00,,---,0.00,VWS V13.00,2013-01-12 10:23:00,
2013-01-12 02:28:00,17.3,15.1,30.32,SSE,153,0.0,0.0,91,0.00,,---,0.00,VWS V13.00,2013-01-12 10:28:00,
2013-01-12 02:33:00,17.3,15.1,30.32,SSE,153,0.0,0.0,91,0.00,,---,0.00,VWS V13.00,2013-01-12 10:33:00,
2013-01-12 02:38:00,17.3,15.1,30.32,SSE,153,0.0,0.0,91,0.00,,---,0.00,VWS V13.00,2013-01-12 10:38:00,
2013-01-12 02:43:00,17.3,15.1,30.31,SSE,153,0.0,0.0,91,0.00,,---,0.00,VWS V13.00,2013-01-12 10:43:00,
2013-01-12 02:48:00,17.3,15.1,30.31,SSE,153,0.0,0.0,91,0.00,,---,0.00,VWS V13.00,2013-01-12 10:48:00,
2013-01-12 02:53:00,17.4,15.2,30.31,SSE,153,0.0,0.0,91,0.00,,---,0.00,VWS V13.00,2013-01-12 10:53:00,
2013-01-12 02:58:00,17.4,15.2,30.31,SSE,153,0.0,0.0,91,0.00,,---,0.00,VWS V13.00,2013-01-12 10:58:00,
2013-01-12 03:03:00,17.4,15.2,30.31,SSE,153,0.0,0.0,91,0.00,,---,0.00,VWS V13.00,2013-01-12 11:03:00,
2013-01-12 03:08:00,17.4,15.2,30.31,SSE,153,0.0,0.0,91,0.00,,---,0.00,VWS V13.00,2013-01-12 11:08:00,
2013-01-12 03:13:00,17.5,15.3,30.31,SSE,153,0.0,0.0,91,0.00,,---,0.00,VWS V13.00,2013-01-12 11:13:00,
2013-01-12 03:18:00,17.5,15.3,30.31,SSE,153,0.0,0.0,91,0.00,,---,0.00,VWS V13.00,2013-01-12 11:18:00,
2013-01-12 03:22:00,17.6,15.7,30.31,SSE,153,0.0,0.0,92,0.00,,---,0.00,VWS V13.00,2013-01-12 11:22:00,
2013-01-12 03:27:00,17.6,15.4,30.31,SSE,153,2.0,2.0,91,0.00,,---,0.00,VWS V13.00,2013-01-12 11:27:00,
2013-01-12 03:32:00,17.7,15.5,30.31,SSE,153,0.0,1.0,91,0.00,,---,0.00,VWS V13.00,2013-01-12 11:32:00,
2013-01-12 03:37:00,17.7,15.5,30.31,SSE,153,0.0,2.0,91,0.00,,---,0.00,VWS V13.00,2013-01-12 11:37:00,
2013-01-12 03:42:00,17.7,15.5,30.30,SSE,153,1.0,3.0,91,0.00,,---,0.00,VWS V13.00,2013-01-12 11:42:00,
2013-01-12 03:47:00,17.7,15.5,30.31,SSE,153,1.0,3.0,91,0.00,,---,0.00,VWS V13.00,2013-01-12 11:47:00,
2013-01-12 03:52:00,17.7,15.5,30.30,SSE,153,0.0,3.0,91,0.00,,---,0.00,VWS V13.00,2013-01-12 11:52:00,
2013-01-12 03:57:00,17.8,15.6,30.30,SSE,153,0.0,3.0,91,0.00,,---,0.00,VWS V13.00,2013-01-12 11:57:00,
2013-01-12 04:02:00,17.8,15.6,30.32,SSE,153,0.0,2.0,91,0.00,,---,0.00,VWS V13.00,2013-01-12 12:02:00,
2013-01-12 04:07:00,17.8,15.6,30.32,SSE,153,1.0,2.0,91,0.00,,---,0.00,VWS V13.00,2013-01-12 12:07:00,
2013-01-12 04:12:00,17.8,15.6,30.32,SSE,153,0.0,2.0,91,0.00,,---,0.00,VWS V13.00,2013-01-12 12:12:00,
2013-01-12 04:17:00,17.9,15.7,30.32,SSE,153,0.0,2.0,91,0.00,,---,0.00,VWS V13.00,2013-01-12 12:17:00,
2013-01-12 04:22:00,17.9,15.7,30.32,SSE,153,0.0,2.0,91,0.00,,---,0.00,VWS V13.00,2013-01-12 12:22:00,
2013-01-12 04:27:00,18.0,15.8,30.32,SSE,153,1.0,2.0,91,0.00,,---,0.00,VWS V13.00,2013-01-12 12:27:00,
2013-01-12 04:32:00,18.0,15.8,30.32,NW,315,2.0,3.0,91,0.00,,---,0.00,VWS V13.00,2013-01-12 12:32:00,
2013-01-12 04:37:00,18.0,15.8,30.32,NW,315,0.0,3.0,91,0.00,,---,0.00,VWS V13.00,2013-01-12 12:37:00,
2013-01-12 04:42:00,17.9,15.7,30.32,NW,315,0.0,3.0,91,0.00,,---,0.00,VWS V13.00,2013-01-12 12:42:00,
2013-01-12 04:47:00,17.8,15.6,30.32,NW,315,0.0,3.0,91,0.00,,---,0.00,VWS V13.00,2013-01-12 12:47:00,
2013-01-12 04:52:00,17.7,15.5,30.32,NW,315,0.0,3.0,91,0.00,,---,0.00,VWS V13.00,2013-01-12 12:52:00,
2013-01-12 04:57:00,17.7,15.5,30.32,NW,315,2.0,3.0,91,0.00,,---,0.00,VWS V13.00,2013-01-12 12:57:00,
2013-01-12 05:02:00,17.6,15.4,30.33,NW,315,1.0,3.0,91,0.00,,---,0.00,VWS V13.00,2013-01-12 13:02:00,
2013-01-12 05:07:00,17.5,15.3,30.34,NW,315,2.0,3.0,91,0.00,,---,0.00,VWS V13.00,2013-01-12 13:07:00,
2013-01-12 05:12:00,17.3,15.1,30.34,NW,315,1.0,3.0,91,0.00,,---,0.00,VWS V13.00,2013-01-12 13:12:00,
2013-01-12 05:17:00,17.3,15.1,30.34,NW,315,1.0,3.0,91,0.00,,---,0.00,VWS V13.00,2013-01-12 13:17:00,
2013-01-12 05:22:00,17.1,14.7,30.34,NW,315,0.0,3.0,90,0.00,,---,0.00,VWS V13.00,2013-01-12 13:22:00,
2013-01-12 05:27:00,17.0,14.6,30.34,NW,315,0.0,3.0,90,0.00,,---,0.00,VWS V13.00,2013-01-12 13:27:00,
2013-01-12 05:32:00,16.9,14.5,30.34,NW,315,0.0,2.0,90,0.00,,---,0.00,VWS V13.00,2013-01-12 13:32:00,
2013-01-12 05:37:00,16.8,14.4,30.34,NW,315,0.0,2.0,90,0.00,,---,0.00,VWS V13.00,2013-01-12 13:37:00,
2013-01-12 05:42:00,16.8,14.6,30.34,NW,315,0.0,2.0,91,0.00,,---,0.00,VWS V13.00,2013-01-12 13:42:00,
2013-01-12 05:47:00,16.8,14.4,30.34,NW,315,0.0,2.0,90,0.00,,---,0.00,VWS V13.00,2013-01-12 13:47:00,
2013-01-12 05:52:00,16.8,14.4,30.34,NW,315,1.0,2.0,90,0.00,,---,0.00,VWS V13.00,2013-01-12 13:52:00,
2013-01-12 05:57:00,16.7,14.3,30.34,NW,315,0.0,3.0,90,0.00,,---,0.00,VWS V13.00,2013-01-12 13:57:00,
2013-01-12 06:02:00,16.6,14.2,30.35,NW,315,1.0,2.0,90,0.00,,---,0.00,VWS V13.00,2013-01-12 14:02:00,
2013-01-12 06:07:00,16.6,14.2,30.35,NW,315,0.0,2.0,90,0.00,,---,0.00,VWS V13.00,2013-01-12 14:07:00,
2013-01-12 06:12:00,16.6,14.2,30.35,NW,315,1.0,2.0,90,0.00,,---,0.00,VWS V13.00,2013-01-12 14:12:00,
2013-01-12 06:17:00,16.6,14.2,30.35,NW,315,0.0,2.0,90,0.00,,---,0.00,VWS V13.00,2013-01-12 14:17:00,
2013-01-12 06:22:00,16.6,14.2,30.35,NW,315,1.0,3.0,90,0.00,,---,0.00,VWS V13.00,2013-01-12 14:22:00,
2013-01-12 06:27:00,16.6,14.2,30.35,NW,315,0.0,3.0,90,0.00,,---,0.00,VWS V13.00,2013-01-12 14:27:00,
2013-01-12 06:32:00,16.6,14.2,30.35,NW,315,0.0,2.0,90,0.00,,---,0.00,VWS V13.00,2013-01-12 14:32:00,
2013-01-12 06:37:00,16.6,14.2,30.36,NW,321,2.0,4.0,90,0.00,,---,0.00,VWS V13.00,2013-01-12 14:37:00,
2013-01-12 06:42:00,16.6,14.2,30.36,NW,313,3.0,4.0,90,0.00,,---,0.00,VWS V13.00,2013-01-12 14:42:00,
2013-01-12 06:47:00,16.6,14.2,30.36,NW,304,3.0,4.0,90,0.00,,---,0.00,VWS V13.00,2013-01-12 14:47:00,
2013-01-12 06:52:00,16.4,14.0,30.36,NW,307,1.0,4.0,90,0.00,,---,0.00,VWS V13.00,2013-01-12 14:52:00,
2013-01-12 06:57:00,16.4,14.0,30.36,NW,307,2.0,4.0,90,0.00,,---,0.00,VWS V13.00,2013-01-12 14:57:00,
2013-01-12 07:02:00,16.3,13.9,30.36,NW,307,1.0,3.0,90,0.00,,---,0.00,VWS V13.00,2013-01-12 15:02:00,
2013-01-12 07:07:00,16.3,13.9,30.36,NW,307,1.0,3.0,90,0.00,,---,0.00,VWS V13.00,2013-01-12 15:07:00,
2013-01-12 07:12:00,16.3,13.9,30.36,NW,307,0.0,3.0,90,0.00,,---,0.00,VWS V13.00,2013-01-12 15:12:00,
2013-01-12 07:17:00,16.3,13.9,30.36,NW,307,1.0,3.0,90,0.00,,---,0.00,VWS V13.00,2013-01-12 15:17:00,
2013-01-12 07:22:00,16.3,13.9,30.36,NW,307,1.0,3.0,90,0.00,,---,0.00,VWS V13.00,2013-01-12 15:22:00,
2013-01-12 07:27:00,16.3,13.9,30.36,NW,307,1.0,3.0,90,0.00,,---,0.00,VWS V13.00,2013-01-12 15:27:00,
2013-01-12 07:32:00,16.4,14.0,30.36,NW,307,1.0,2.0,90,0.00,,---,0.00,VWS V13.00,2013-01-12 15:32:00,
2013-01-12 07:37:00,16.4,14.0,30.37,NW,307,1.0,2.0,90,0.00,,---,0.00,VWS V13.00,2013-01-12 15:37:00,
2013-01-12 07:42:00,16.4,14.0,30.37,NW,307,0.0,2.0,90,0.00,,---,0.00,VWS V13.00,2013-01-12 15:42:00,
2013-01-12 07:47:00,16.5,14.1,30.37,NW,307,0.0,2.0,90,0.00,,---,0.00,VWS V13.00,2013-01-12 15:47:00,
2013-01-12 07:52:00,16.6,14.2,30.37,NW,307,1.0,2.0,90,0.00,,---,0.00,VWS V13.00,2013-01-12 15:52:00,
2013-01-12 07:57:00,16.6,14.2,30.37,NW,307,1.0,3.0,90,0.00,,---,0.00,VWS V13.00,2013-01-12 15:57:00,
2013-01-12 08:02:00,16.7,14.3,30.36,NW,307,2.0,2.0,90,0.00,,---,0.00,VWS V13.00,2013-01-12 16:02:00,
2013-01-12 08:07:00,16.8,14.4,30.36,NW,307,1.0,2.0,90,0.00,,---,0.00,VWS V13.00,2013-01-12 16:07:00,
2013-01-12 08:12:00,16.9,14.5,30.36,NW,307,0.0,2.0,90,0.00,,---,0.00,VWS V13.00,2013-01-12 16:12:00,
2013-01-12 08:17:00,17.0,14.6,30.37,NW,307,1.0,2.0,90,0.00,,---,0.00,VWS V13.00,2013-01-12 16:17:00,
2013-01-12 08:22:00,17.1,14.9,30.37,NNW,334,2.0,4.0,91,0.00,,---,0.00,VWS V13.00,2013-01-12 16:22:00,
2013-01-12 08:27:00,17.0,14.6,30.36,North,360,4.0,4.0,90,0.00,,---,0.00,VWS V13.00,2013-01-12 16:27:00,
2013-01-12 08:32:00,17.0,14.6,30.36,North,360,0.0,3.0,90,0.00,,---,0.00,VWS V13.00,2013-01-12 16:32:00,
2013-01-12 08:37:00,16.9,14.5,30.36,North,360,1.0,3.0,90,0.00,,---,0.00,VWS V13.00,2013-01-12 16:37:00,
2013-01-12 08:42:00,16.8,14.4,30.36,NNW,341,0.0,3.0,90,0.00,,---,0.00,VWS V13.00,2013-01-12 16:42:00,
2013-01-12 08:47:00,16.8,14.4,30.37,NNW,341,1.0,3.0,90,0.00,,---,0.00,VWS V13.00,2013-01-12 16:47:00,
2013-01-12 08:52:00,16.8,14.4,30.37,NW,323,1.0,4.0,90,0.00,,---,0.00,VWS V13.00,2013-01-12 16:52:00,
2013-01-12 08:57:00,16.8,14.4,30.37,NW,320,2.0,4.0,90,0.00,,---,0.00,VWS V13.00,2013-01-12 16:57:00,
2013-01-12 09:02:00,16.8,14.4,30.37,NW,320,1.0,4.0,90,0.00,,---,0.00,VWS V13.00,2013-01-12 17:02:00,
2013-01-12 09:07:00,16.9,14.5,30.37,NW,319,3.0,4.0,90,0.00,,---,0.00,VWS V13.00,2013-01-12 17:07:00,
2013-01-12 09:12:00,17.0,14.6,30.37,NW,320,4.0,4.0,90,0.00,,---,0.00,VWS V13.00,2013-01-12 17:12:00,
2013-01-12 09:17:00,17.1,14.7,30.37,NW,319,1.0,4.0,90,0.00,,---,0.00,VWS V13.00,2013-01-12 17:17:00,
2013-01-12 09:22:00,17.2,14.8,30.37,NW,318,2.0,4.0,90,0.00,,---,0.00,VWS V13.00,2013-01-12 17:22:00,
2013-01-12 09:27:00,17.3,14.9,30.38,NW,318,1.0,4.0,90,0.00,,---,0.00,VWS V13.00,2013-01-12 17:27:00,
2013-01-12 09:32:00,17.4,15.0,30.38,NW,319,3.0,4.0,90,0.00,,---,0.00,VWS V13.00,2013-01-12 17:32:00,
2013-01-12 09:37:00,17.5,15.3,30.38,NW,319,0.0,4.0,91,0.00,,---,0.00,VWS V13.00,2013-01-12 17:37:00,
2013-01-12 09:42:00,17.6,15.4,30.38,NW,319,2.0,4.0,91,0.00,,---,0.00,VWS V13.00,2013-01-12 17:42:00,
2013-01-12 09:47:00,17.7,15.5,30.38,NW,321,2.0,4.0,91,0.00,,---,0.00,VWS V13.00,2013-01-12 17:47:00,
2013-01-12 09:52:00,17.7,15.3,30.38,NW,321,1.0,4.0,90,0.00,,---,0.00,VWS V13.00,2013-01-12 17:52:00,
2013-01-12 09:57:00,17.8,15.4,30.39,NW,321,0.0,4.0,90,0.00,,---,0.00,VWS V13.00,2013-01-12 17:57:00,
2013-01-12 10:02:00,17.9,15.5,30.39,NW,321,1.0,3.0,90,0.00,,---,0.00,VWS V13.00,2013-01-12 18:02:00,
2013-01-12 10:07:00,18.1,15.7,30.39,NW,321,1.0,4.0,90,0.00,,---,0.00,VWS V13.00,2013-01-12 18:07:00,
2013-01-12 10:12:00,18.2,15.8,30.39,NW,321,0.0,4.0,90,0.00,,---,0.00,VWS V13.00,2013-01-12 18:12:00,
2013-01-12 10:17:00,18.3,15.9,30.39,NW,321,1.0,4.0,90,0.00,,---,0.00,VWS V13.00,2013-01-12 18:17:00,
2013-01-12 10:22:00,18.4,16.0,30.39,NW,321,1.0,4.0,90,0.00,,---,0.00,VWS V13.00,2013-01-12 18:22:00,
2013-01-12 10:27:00,18.4,16.0,30.39,NW,321,2.0,4.0,90,0.00,,---,0.00,VWS V13.00,2013-01-12 18:27:00,
2013-01-12 10:32:00,18.5,16.1,30.39,NW,321,1.0,4.0,90,0.00,,---,0.00,VWS V13.00,2013-01-12 18:32:00,
2013-01-12 10:37:00,18.5,16.1,30.38,NNW,341,2.0,5.0,90,0.00,,---,0.00,VWS V13.00,2013-01-12 18:37:00,
2013-01-12 10:42:00,18.5,16.1,30.38,NNW,346,0.0,5.0,90,0.00,,---,0.00,VWS V13.00,2013-01-12 18:42:00,
2013-01-12 10:47:00,18.6,16.2,30.38,WNW,303,2.0,5.0,90,0.00,,---,0.00,VWS V13.00,2013-01-12 18:47:00,
2013-01-12 10:52:00,18.6,16.2,30.38,NNW,328,1.0,5.0,90,0.00,,---,0.00,VWS V13.00,2013-01-12 18:52:00,
2013-01-12 10:57:00,18.7,16.0,30.38,NW,315,2.0,5.0,89,0.00,,---,0.00,VWS V13.00,2013-01-12 18:57:00,
2013-01-12 11:02:00,18.7,16.0,30.39,NNW,330,1.0,5.0,89,0.00,,---,0.00,VWS V13.00,2013-01-12 19:02:00,
2013-01-12 11:07:00,18.7,16.0,30.39,NW,307,5.0,6.0,89,0.00,,---,0.00,VWS V13.00,2013-01-12 19:07:00,
2013-01-12 11:12:00,18.7,16.0,30.39,NW,305,1.0,6.0,89,0.00,,---,0.00,VWS V13.00,2013-01-12 19:12:00,
2013-01-12 11:17:00,18.6,15.9,30.39,NW,317,3.0,6.0,89,0.00,,---,0.00,VWS V13.00,2013-01-12 19:17:00,
2013-01-12 11:22:00,18.6,15.9,30.39,NW,325,4.0,6.0,89,0.00,,---,0.00,VWS V13.00,2013-01-12 19:22:00,
2013-01-12 11:27:00,18.5,15.6,30.39,North,355,1.0,9.0,88,0.00,,---,0.00,VWS V13.00,2013-01-12 19:27:00,
2013-01-12 11:32:00,18.4,15.4,30.39,NNW,341,7.0,7.0,88,0.00,,---,0.00,VWS V13.00,2013-01-12 19:32:00,
2013-01-12 11:37:00,18.3,15.4,30.39,NW,314,5.0,7.0,88,0.00,,---,0.00,VWS V13.00,2013-01-12 19:37:00,
2013-01-12 11:42:00,18.2,15.2,30.39,NW,314,3.0,7.0,88,0.00,,---,0.00,VWS V13.00,2013-01-12 19:42:00,
2013-01-12 11:47:00,18.2,15.2,30.39,West,281,1.0,7.0,88,0.00,,---,0.00,VWS V13.00,2013-01-12 19:47:00,
2013-01-12 11:52:00,18.1,15.1,30.39,North,350,3.0,7.0,88,0.00,,---,0.00,VWS V13.00,2013-01-12 19:52:00,
2013-01-12 11:57:00,18.1,15.1,30.39,NW,315,2.0,7.0,88,0.00,,---,0.00,VWS V13.00,2013-01-12 19:57:00,
2013-01-12 12:02:00,18.2,15.2,30.38,NW,319,4.0,6.0,88,0.00,,---,0.00,VWS V13.00,2013-01-12 20:02:00,
2013-01-12 12:07:00,18.3,15.4,30.38,WNW,287,3.0,6.0,88,0.00,,---,0.00,VWS V13.00,2013-01-12 20:07:00,
2013-01-12 12:12:00,18.4,15.4,30.38,West,279,2.0,6.0,88,0.00,,---,0.00,VWS V13.00,2013-01-12 20:12:00,
2013-01-12 12:17:00,18.4,15.2,30.38,West,270,4.0,6.0,87,0.00,,---,0.00,VWS V13.00,2013-01-12 20:17:00,
2013-01-12 12:22:00,18.4,15.2,30.38,WNW,282,2.0,6.0,87,0.00,,---,0.00,VWS V13.00,2013-01-12 20:22:00,
2013-01-12 12:27:00,18.5,15.3,30.38,West,275,2.0,6.0,87,0.00,,---,0.00,VWS V13.00,2013-01-12 20:27:00,
2013-01-12 12:32:00,18.7,15.5,30.38,West,279,4.0,5.0,87,0.00,,---,0.00,VWS V13.00,2013-01-12 20:32:00,
2013-01-12 12:37:00,18.8,15.6,30.38,WSW,248,3.0,5.0,87,0.00,,---,0.00,VWS V13.00,2013-01-12 20:37:00,
2013-01-12 12:42:00,19.0,15.8,30.38,WSW,253,1.0,5.0,87,0.00,,---,0.00,VWS V13.00,2013-01-12 20:42:00,
2013-01-12 12:47:00,19.1,15.9,30.38,WSW,250,1.0,5.0,87,0.00,,---,0.00,VWS V13.00,2013-01-12 20:47:00,
2013-01-12 12:52:00,19.1,15.6,30.38,WSW,238,3.0,5.0,86,0.00,,---,0.00,VWS V13.00,2013-01-12 20:52:00,
2013-01-12 12:57:00,19.1,15.6,30.38,South,188,0.0,5.0,86,0.00,,---,0.00,VWS V13.00,2013-01-12 20:57:00,
2013-01-12 13:02:00,19.4,16.2,30.38,SW,232,1.0,4.0,87,0.00,,---,0.00,VWS V13.00,2013-01-12 21:02:00,
2013-01-12 13:07:00,19.7,16.2,30.38,West,260,2.0,4.0,86,0.00,,---,0.00,VWS V13.00,2013-01-12 21:07:00,
2013-01-12 13:12:00,20.3,16.8,30.38,West,260,1.0,4.0,86,0.00,,---,0.00,VWS V13.00,2013-01-12 21:12:00,
2013-01-12 13:17:00,21.1,17.6,30.37,West,261,1.0,4.0,86,0.00,,---,0.00,VWS V13.00,2013-01-12 21:17:00,
2013-01-12 13:22:00,21.2,17.4,30.37,West,264,2.0,4.0,85,0.00,,---,0.00,VWS V13.00,2013-01-12 21:22:00,
2013-01-12 13:27:00,20.7,16.6,30.37,WNW,283,1.0,5.0,84,0.00,,---,0.00,VWS V13.00,2013-01-12 21:27:00,
2013-01-12 13:32:00,20.2,16.4,30.38,WNW,295,4.0,4.0,85,0.00,,---,0.00,VWS V13.00,2013-01-12 21:32:00,
2013-01-12 13:37:00,20.3,16.5,30.38,West,265,2.0,5.0,85,0.00,,---,0.00,VWS V13.00,2013-01-12 21:37:00,
2013-01-12 13:42:00,21.6,19.6,30.38,West,263,4.0,5.0,92,0.00,,---,0.00,VWS V13.00,2013-01-12 21:42:00,
2013-01-12 13:47:00,22.3,17.9,30.38,West,263,3.0,5.0,83,0.00,,---,0.00,VWS V13.00,2013-01-12 21:47:00,
2013-01-12 13:52:00,22.1,17.5,30.38,WSW,253,3.0,5.0,82,0.00,,---,0.00,VWS V13.00,2013-01-12 21:52:00,
2013-01-12 13:57:00,22.1,17.5,30.38,NW,316,2.0,5.0,82,0.00,,---,0.00,VWS V13.00,2013-01-12 21:57:00,
2013-01-12 14:02:00,21.3,16.7,30.38,West,267,4.0,5.0,82,0.00,,---,0.00,VWS V13.00,2013-01-12 22:02:00,
2013-01-12 14:07:00,21.5,16.9,30.38,West,276,5.0,6.0,82,0.00,,---,0.00,VWS V13.00,2013-01-12 22:07:00,
2013-01-12 14:12:00,21.5,16.9,30.38,NW,311,3.0,6.0,82,0.00,,---,0.00,VWS V13.00,2013-01-12 22:12:00,
2013-01-12 14:17:00,21.4,16.5,30.38,NW,313,4.0,6.0,81,0.00,,---,0.00,VWS V13.00,2013-01-12 22:17:00,
2013-01-12 14:22:00,21.3,16.7,30.38,WNW,303,4.0,9.0,82,0.00,,---,0.00,VWS V13.00,2013-01-12 22:22:00,
2013-01-12 14:27:00,21.3,16.7,30.38,NW,316,2.0,9.0,82,0.00,,---,0.00,VWS V13.00,2013-01-12 22:27:00,
2013-01-12 14:32:00,21.5,16.9,30.37,West,264,4.0,5.0,82,0.00,,---,0.00,VWS V13.00,2013-01-12 22:32:00,
2013-01-12 14:37:00,21.5,16.6,30.37,West,276,4.0,7.0,81,0.00,,---,0.00,VWS V13.00,2013-01-12 22:37:00,
2013-01-12 14:42:00,21.6,17.0,30.37,WNW,285,2.0,7.0,82,0.00,,---,0.00,VWS V13.00,2013-01-12 22:42:00,
2013-01-12 14:47:00,22.3,17.4,30.37,West,272,3.0,7.0,81,0.00,,---,0.00,VWS V13.00,2013-01-12 22:47:00,
2013-01-12 14:52:00,22.6,17.4,30.37,SW,225,2.0,7.0,80,0.00,,---,0.00,VWS V13.00,2013-01-12 22:52:00,
2013-01-12 14:57:00,22.4,16.9,30.37,SSW,207,1.0,7.0,79,0.00,,---,0.00,VWS V13.00,2013-01-12 22:57:00,
2013-01-12 15:02:00,22.5,17.3,30.37,SSW,208,2.0,3.0,80,0.00,,---,0.00,VWS V13.00,2013-01-12 23:02:00,
2013-01-12 15:07:00,22.4,16.9,30.37,SSW,207,0.0,3.0,79,0.00,,---,0.00,VWS V13.00,2013-01-12 23:07:00,
2013-01-12 15:12:00,22.7,17.5,30.37,SSW,208,1.0,3.0,80,0.00,,---,0.00,VWS V13.00,2013-01-12 23:12:00,
2013-01-12 15:17:00,22.9,17.4,30.37,SSW,208,0.0,3.0,79,0.00,,---,0.00,VWS V13.00,2013-01-12 23:17:00,
2013-01-12 15:22:00,22.7,16.9,30.37,SSW,207,0.0,3.0,78,0.00,,---,0.00,VWS V13.00,2013-01-12 23:22:00,
2013-01-12 15:27:00,22.8,17.3,30.37,SSW,208,0.0,3.0,79,0.00,,---,0.00,VWS V13.00,2013-01-12 23:27:00,
2013-01-12 15:32:00,22.8,17.0,30.37,SSW,208,0.0,2.0,78,0.00,,---,0.00,VWS V13.00,2013-01-12 23:32:00,
2013-01-12 15:37:00,22.6,16.8,30.37,SSW,208,0.0,2.0,78,0.00,,---,0.00,VWS V13.00,2013-01-12 23:37:00,
2013-01-12 15:42:00,22.5,17.0,30.37,SSW,209,2.0,3.0,79,0.00,,---,0.00,VWS V13.00,2013-01-12 23:42:00,
2013-01-12 15:47:00,22.0,16.5,30.38,SSW,209,1.0,3.0,79,0.00,,---,0.00,VWS V13.00,2013-01-12 23:47:00,
2013-01-12 15:52:00,21.6,16.1,30.38,SSW,209,0.0,3.0,79,0.00,,---,0.00,VWS V13.00,2013-01-12 23:52:00,
2013-01-12 15:57:00,21.4,15.9,30.39,SSW,209,0.0,3.0,79,0.00,,---,0.00,VWS V13.00,2013-01-12 23:57:00,
2013-01-12 16:02:00,21.1,15.6,30.39,SSW,209,0.0,2.0,79,0.00,,---,0.00,VWS V13.00,2013-01-13 00:02:00,
2013-01-12 16:07:00,20.8,15.6,30.39,West,274,0.0,3.0,80,0.00,,---,0.00,VWS V13.00,2013-01-13 00:07:00,
2013-01-12 16:12:00,20.4,15.2,30.39,West,274,0.0,3.0,80,0.00,,---,0.00,VWS V13.00,2013-01-13 00:12:00,
2013-01-12 16:17:00,19.9,14.7,30.39,West,273,0.0,3.0,80,0.00,,---,0.00,VWS V13.00,2013-01-13 00:17:00,
2013-01-12 16:22:00,19.6,14.4,30.39,West,274,0.0,3.0,80,0.00,,---,0.00,VWS V13.00,2013-01-13 00:22:00,
2013-01-12 16:27:00,19.2,14.3,30.40,West,274,1.0,3.0,81,0.00,,---,0.00,VWS V13.00,2013-01-13 00:27:00,
2013-01-12 16:32:00,18.8,13.9,30.40,West,274,0.0,2.0,81,0.00,,---,0.00,VWS V13.00,2013-01-13 00:32:00,
2013-01-12 16:37:00,18.3,13.5,30.40,West,273,1.0,2.0,81,0.00,,---,0.00,VWS V13.00,2013-01-13 00:37:00,
2013-01-12 16:42:00,18.0,13.4,30.40,West,273,1.0,2.0,82,0.00,,---,0.00,VWS V13.00,2013-01-13 00:42:00,
2013-01-12 16:47:00,17.5,12.9,30.40,West,273,1.0,2.0,82,0.00,,---,0.00,VWS V13.00,2013-01-13 00:47:00,
2013-01-12 16:52:00,17.1,12.6,30.41,West,274,0.0,2.0,82,0.00,,---,0.00,VWS V13.00,2013-01-13 00:52:00,
2013-01-12 16:57:00,16.8,12.3,30.40,West,274,0.0,2.0,82,0.00,,---,0.00,VWS V13.00,2013-01-13 00:57:00,
2013-01-12 17:02:00,16.4,11.9,30.40,West,274,0.0,1.0,82,0.00,,---,0.00,VWS V13.00,2013-01-13 01:02:00,
2013-01-12 17:07:00,16.0,11.8,30.41,West,273,1.0,2.0,83,0.00,,---,0.00,VWS V13.00,2013-01-13 01:07:00,
2013-01-12 17:12:00,15.5,11.3,30.41,West,273,0.0,2.0,83,0.00,,---,0.00,VWS V13.00,2013-01-13 01:12:00,
2013-01-12 17:17:00,14.8,10.6,30.41,West,274,0.0,2.0,83,0.00,,---,0.00,VWS V13.00,2013-01-13 01:17:00,
2013-01-12 17:22:00,14.3,10.1,30.41,West,274,0.0,2.0,83,0.00,,---,0.00,VWS V13.00,2013-01-13 01:22:00,
2013-01-12 17:27:00,13.9,10.0,30.42,West,274,0.0,2.0,84,0.00,,---,0.00,VWS V13.00,2013-01-13 01:27:00,
2013-01-12 17:32:00,13.7,10.0,30.42,West,274,1.0,1.0,85,0.00,,---,0.00,VWS V13.00,2013-01-13 01:32:00,
2013-01-12 17:37:00,13.5,9.8,30.42,West,273,0.0,2.0,85,0.00,,---,0.00,VWS V13.00,2013-01-13 01:37:00,
2013-01-12 17:42:00,13.2,9.6,30.42,West,274,1.0,2.0,85,0.00,,---,0.00,VWS V13.00,2013-01-13 01:42:00,
2013-01-12 17:47:00,13.0,9.6,30.42,West,274,0.0,2.0,86,0.00,,---,0.00,VWS V13.00,2013-01-13 01:47:00,
2013-01-12 17:52:00,12.9,9.2,30.42,West,273,0.0,2.0,85,0.00,,---,0.00,VWS V13.00,2013-01-13 01:52:00,
2013-01-12 17:57:00,12.7,9.1,30.42,West,273,1.0,2.0,85,0.00,,---,0.00,VWS V13.00,2013-01-13 01:57:00,
2013-01-12 18:02:00,12.5,8.9,30.43,West,274,1.0,2.0,85,0.00,,---,0.00,VWS V13.00,2013-01-13 02:02:00,
2013-01-12 18:07:00,12.1,8.2,30.43,West,274,0.0,2.0,84,0.00,,---,0.00,VWS V13.00,2013-01-13 02:07:00,
2013-01-12 18:12:00,11.8,8.2,30.44,West,274,2.0,2.0,85,0.00,,---,0.00,VWS V13.00,2013-01-13 02:12:00,
2013-01-12 18:17:00,11.5,7.6,30.44,West,273,1.0,2.0,84,0.00,,---,0.00,VWS V13.00,2013-01-13 02:17:00,
2013-01-12 18:22:00,11.2,7.3,30.44,West,273,2.0,2.0,84,0.00,,---,0.00,VWS V13.00,2013-01-13 02:22:00,
2013-01-12 18:27:00,10.8,6.9,30.44,West,274,0.0,2.0,84,0.00,,---,0.00,VWS V13.00,2013-01-13 02:27:00,
2013-01-12 18:32:00,10.6,6.7,30.44,West,274,0.0,1.0,84,0.00,,---,0.00,VWS V13.00,2013-01-13 02:32:00,
2013-01-12 18:37:00,10.5,6.9,30.44,West,273,0.0,1.0,85,0.00,,---,0.00,VWS V13.00,2013-01-13 02:37:00,
2013-01-12 18:42:00,10.4,6.8,30.43,West,274,0.0,1.0,85,0.00,,---,0.00,VWS V13.00,2013-01-13 02:42:00,
2013-01-12 18:47:00,10.3,6.7,30.43,West,274,0.0,1.0,85,0.00,,---,0.00,VWS V13.00,2013-01-13 02:47:00,
2013-01-12 18:52:00,10.2,6.8,30.43,West,273,0.0,1.0,86,0.00,,---,0.00,VWS V13.00,2013-01-13 02:52:00,
2013-01-12 18:57:00,10.0,6.4,30.43,West,274,2.0,2.0,85,0.00,,---,0.00,VWS V13.00,2013-01-13 02:57:00,
2013-01-12 19:02:00,9.9,6.3,30.44,West,274,0.0,2.0,85,0.00,,---,0.00,VWS V13.00,2013-01-13 03:02:00,
2013-01-12 19:07:00,9.5,5.9,30.44,West,274,1.0,2.0,85,0.00,,---,0.00,VWS V13.00,2013-01-13 03:07:00,
2013-01-12 19:12:00,9.2,5.6,30.44,West,274,2.0,2.0,85,0.00,,---,0.00,VWS V13.00,2013-01-13 03:12:00,
2013-01-12 19:17:00,8.8,5.2,30.44,West,273,1.0,2.0,85,0.00,,---,0.00,VWS V13.00,2013-01-13 03:17:00,
2013-01-12 19:22:00,8.5,4.9,30.44,West,274,0.0,2.0,85,0.00,,---,0.00,VWS V13.00,2013-01-13 03:22:00,
2013-01-12 19:27:00,8.2,4.6,30.44,West,274,0.0,2.0,85,0.00,,---,0.00,VWS V13.00,2013-01-13 03:27:00,
2013-01-12 19:32:00,8.2,4.6,30.44,West,274,1.0,2.0,85,0.00,,---,0.00,VWS V13.00,2013-01-13 03:32:00,
2013-01-12 19:37:00,8.1,4.5,30.44,West,274,0.0,2.0,85,0.00,,---,0.00,VWS V13.00,2013-01-13 03:37:00,
2013-01-12 19:42:00,8.1,4.8,30.43,West,274,0.0,2.0,86,0.00,,---,0.00,VWS V13.00,2013-01-13 03:42:00,
2013-01-12 19:47:00,8.1,4.8,30.43,West,273,0.0,2.0,86,0.00,,---,0.00,VWS V13.00,2013-01-13 03:47:00,
2013-01-12 19:52:00,8.2,4.9,30.43,West,274,0.0,2.0,86,0.00,,---,0.00,VWS V13.00,2013-01-13 03:52:00,
2013-01-12 19:57:00,8.1,4.8,30.42,West,273,0.0,2.0,86,0.00,,---,0.00,VWS V13.00,2013-01-13 03:57:00,
2013-01-12 20:02:00,8.1,4.8,30.43,West,273,1.0,2.0,86,0.00,,---,0.00,VWS V13.00,2013-01-13 04:02:00,
2013-01-12 20:07:00,8.0,4.7,30.44,West,274,1.0,2.0,86,0.00,,---,0.00,VWS V13.00,2013-01-13 04:07:00,
2013-01-12 20:12:00,7.9,4.6,30.44,West,273,0.0,2.0,86,0.00,,---,0.00,VWS V13.00,2013-01-13 04:12:00,
2013-01-12 20:17:00,7.9,4.6,30.44,West,274,0.0,2.0,86,0.00,,---,0.00,VWS V13.00,2013-01-13 04:17:00,
2013-01-12 20:22:00,7.9,4.8,30.44,West,273,1.0,2.0,87,0.00,,---,0.00,VWS V13.00,2013-01-13 04:22:00,
2013-01-12 20:27:00,8.0,4.9,30.44,West,274,0.0,2.0,87,0.00,,---,0.00,VWS V13.00,2013-01-13 04:27:00,
2013-01-12 20:32:00,8.0,4.9,30.44,West,274,0.0,0.0,87,0.00,,---,0.00,VWS V13.00,2013-01-13 04:32:00,
2013-01-12 20:37:00,8.0,4.9,30.44,West,273,0.0,2.0,87,0.00,,---,0.00,VWS V13.00,2013-01-13 04:37:00,
2013-01-12 20:42:00,8.0,4.9,30.44,West,274,0.0,2.0,87,0.00,,---,0.00,VWS V13.00,2013-01-13 04:42:00,
2013-01-12 20:47:00,8.0,4.9,30.44,West,273,0.0,2.0,87,0.00,,---,0.00,VWS V13.00,2013-01-13 04:47:00,
2013-01-12 20:52:00,7.9,4.8,30.44,West,274,0.0,2.0,87,0.00,,---,0.00,VWS V13.00,2013-01-13 04:52:00,
2013-01-12 20:57:00,7.9,4.8,30.44,West,274,0.0,2.0,87,0.00,,---,0.00,VWS V13.00,2013-01-13 04:57:00,
2013-01-12 21:00:00,7.9,4.8,30.43,West,273,1.0,1.0,87,0.00,,---,0.00,VWS V13.00,2013-01-13 05:00:00,
2013-01-12 21:01:00,7.9,4.8,30.43,West,273,1.0,1.0,87,0.00,,---,0.00,VWS V13.00,2013-01-13 05:01:00,
2013-01-12 21:03:00,7.9,4.8,30.43,West,274,1.0,1.0,87,0.00,,---,0.00,VWS V13.00,2013-01-13 05:03:00,
2013-01-12 21:08:00,7.9,4.8,30.43,West,273,0.0,2.0,87,0.00,,---,0.00,VWS V13.00,2013-01-13 05:08:00,
2013-01-12 21:13:00,7.8,4.7,30.43,West,273,0.0,2.0,87,0.00,,---,0.00,VWS V13.00,2013-01-13 05:13:00,
2013-01-12 21:18:00,7.8,4.7,30.43,West,274,1.0,2.0,87,0.00,,---,0.00,VWS V13.00,2013-01-13 05:18:00,
2013-01-12 21:23:00,7.8,4.7,30.43,West,274,1.0,2.0,87,0.00,,---,0.00,VWS V13.00,2013-01-13 05:23:00,
2013-01-12 21:28:00,7.8,4.7,30.44,West,274,0.0,2.0,87,0.00,,---,0.00,VWS V13.00,2013-01-13 05:28:00,
2013-01-12 21:33:00,7.8,4.7,30.44,West,273,1.0,2.0,87,0.00,,---,0.00,VWS V13.00,2013-01-13 05:33:00,
2013-01-12 21:38:00,7.9,4.8,30.43,West,274,0.0,2.0,87,0.00,,---,0.00,VWS V13.00,2013-01-13 05:38:00,
2013-01-12 21:43:00,7.9,4.8,30.44,West,274,0.0,2.0,87,0.00,,---,0.00,VWS V13.00,2013-01-13 05:43:00,
2013-01-12 21:48:00,7.9,4.8,30.44,West,274,0.0,2.0,87,0.00,,---,0.00,VWS V13.00,2013-01-13 05:48:00,
2013-01-12 21:53:00,8.0,4.9,30.44,West,273,1.0,2.0,87,0.00,,---,0.00,VWS V13.00,2013-01-13 05:53:00,
2013-01-12 21:58:00,8.1,5.3,30.44,West,274,0.0,2.0,88,0.00,,---,0.00,VWS V13.00,2013-01-13 05:58:00,
2013-01-12 22:03:00,8.2,5.4,30.44,West,274,0.0,1.0,88,0.00,,---,0.00,VWS V13.00,2013-01-13 06:03:00,
2013-01-12 22:08:00,8.3,5.5,30.44,West,274,0.0,1.0,88,0.00,,---,0.00,VWS V13.00,2013-01-13 06:08:00,
2013-01-12 22:13:00,8.5,5.7,30.43,West,273,0.0,1.0,88,0.00,,---,0.00,VWS V13.00,2013-01-13 06:13:00,
2013-01-12 22:18:00,8.6,5.8,30.43,West,274,0.0,1.0,88,0.00,,---,0.00,VWS V13.00,2013-01-13 06:18:00,
2013-01-12 22:23:00,8.7,5.9,30.43,West,273,0.0,1.0,88,0.00,,---,0.00,VWS V13.00,2013-01-13 06:23:00,
2013-01-12 22:28:00,9.0,6.4,30.44,West,274,1.0,2.0,89,0.00,,---,0.00,VWS V13.00,2013-01-13 06:28:00,
2013-01-12 22:33:00,9.2,6.6,30.44,West,274,0.0,1.0,89,0.00,,---,0.00,VWS V13.00,2013-01-13 06:33:00,
2013-01-12 22:38:00,9.4,6.8,30.43,West,274,0.0,1.0,89,0.00,,---,0.00,VWS V13.00,2013-01-13 06:38:00,
2013-01-12 22:43:00,9.5,6.9,30.43,West,274,0.0,1.0,89,0.00,,---,0.00,VWS V13.00,2013-01-13 06:43:00,
2013-01-12 22:48:00,9.6,7.0,30.43,West,274,0.0,1.0,89,0.00,,---,0.00,VWS V13.00,2013-01-13 06:48:00,
2013-01-12 22:53:00,9.7,7.1,30.43,West,273,0.0,1.0,89,0.00,,---,0.00,VWS V13.00,2013-01-13 06:53:00,
2013-01-12 22:58:00,9.8,7.2,30.43,West,273,0.0,1.0,89,0.00,,---,0.00,VWS V13.00,2013-01-13 06:58:00,
2013-01-12 23:03:00,9.9,7.3,30.43,West,274,0.0,0.0,89,0.00,,---,0.00,VWS V13.00,2013-01-13 07:03:00,
2013-01-12 23:08:00,9.9,7.3,30.43,West,274,0.0,0.0,89,0.00,,---,0.00,VWS V13.00,2013-01-13 07:08:00,
2013-01-12 23:13:00,9.9,7.3,30.43,West,274,0.0,0.0,89,0.00,,---,0.00,VWS V13.00,2013-01-13 07:13:00,
2013-01-12 23:18:00,10.0,7.4,30.43,West,274,0.0,0.0,89,0.00,,---,0.00,VWS V13.00,2013-01-13 07:18:00,
2013-01-12 23:23:00,10.1,7.5,30.43,West,273,0.0,0.0,89,0.00,,---,0.00,VWS V13.00,2013-01-13 07:23:00,
2013-01-12 23:28:00,10.3,7.7,30.43,West,274,0.0,1.0,89,0.00,,---,0.00,VWS V13.00,2013-01-13 07:28:00,
2013-01-12 23:33:00,10.4,7.8,30.43,West,273,0.0,0.0,89,0.00,,---,0.00,VWS V13.00,2013-01-13 07:33:00,
2013-01-12 23:38:00,10.6,8.0,30.43,West,273,0.0,0.0,89,0.00,,---,0.00,VWS V13.00,2013-01-13 07:38:00,
2013-01-12 23:43:00,10.7,8.1,30.43,West,273,0.0,0.0,89,0.00,,---,0.00,VWS V13.00,2013-01-13 07:43:00,
2013-01-12 23:48:00,10.8,8.2,30.43,West,273,0.0,0.0,89,0.00,,---,0.00,VWS V13.00,2013-01-13 07:48:00,
2013-01-12 23:53:00,10.9,8.6,30.44,West,273,0.0,0.0,90,0.00,,---,0.00,VWS V13.00,2013-01-13 07:53:00,
2013-01-12 23:58:00,11.0,8.4,30.44,West,273,0.0,0.0,89,0.00,,---,0.00,VWS V13.00,2013-01-13 07:58:00,